FW6558 Weather Reports


time (UTC)temp
F
wind
direction
speed
knots
gust
knots
rain 1hr
in
rain 24hr
in
rain mn
in
humidity
%
barometer
mb
20210518202616 69 158 0.9 1.7 0.00 0.00 0.00 86 1021.8
20210518202115 69 40 1.7 5.2 0.00 0.00 0.00 84 1021.8
20210518201615 69 90 0.9 2.6 0.00 0.00 0.00 85 1021.6
20210518201116 69 358 2.6 5.2 0.00 0.00 0.00 86 1021.6
20210518200615 69 45 0.0 6.1 0.00 0.00 0.00 85 1021.8
20210518200116 69 223 2.6 6.1 0.00 0.00 0.00 85 1022.0
20210518195615 70 271 0.9 2.6 0.00 0.00 0.00 85 1021.9
20210518195115 70 60 4.3 11.3 0.00 0.00 0.00 83 1021.8
20210518194616 70 148 0.9 4.3 0.00 0.00 0.00 84 1022.0
20210518194115 70 122 0.0 2.6 0.00 0.00 0.00 86 1022.2
20210518193616 70 70 0.9 2.6 0.00 0.00 0.00 84 1022.3
20210518193116 70 61 1.7 5.2 0.00 0.00 0.00 84 1022.0
20210518192615 70 43 0.9 5.2 0.00 0.00 0.00 83 1022.3
20210518192115 70 85 1.7 5.2 0.00 0.00 0.00 83 1022.3
20210518191615 70 335 0.9 2.6 0.00 0.00 0.00 84 1022.3
20210518191116 70 129 0.9 1.7 0.00 0.00 0.00 84 1022.3
20210518190615 69 212 0.9 2.6 0.00 0.00 0.00 85 1022.3
20210518190116 69 20 0.9 2.6 0.00 0.00 0.00 86 1022.4
20210518185615 69 256 0.9 4.3 0.00 0.00 0.00 85 1022.3
20210518185116 69 130 1.7 6.1 0.00 0.00 0.00 84 1022.5
20210518184615 70 7 0.0 8.7 0.00 0.00 0.00 83 1022.5
20210518184115 70 206 5.2 8.7 0.00 0.00 0.00 83 1022.2
20210518183615 70 103 2.6 4.3 0.00 0.00 0.00 84 1022.5
20210518183115 69 100 1.7 2.6 0.00 0.00 0.00 86 1022.6
20210518182615 70 29 0.0 5.2 0.00 0.00 0.00 87 1022.6
20210518182116 71 153 2.6 5.2 0.00 0.00 0.00 83 1022.5
20210518181615 70 223 1.7 2.6 0.00 0.00 0.00 85 1022.5
20210518181116 70 322 2.6 6.1 0.00 0.00 0.00 84 1022.8
20210518180615 70 66 2.6 7.0 0.00 0.00 0.00 83 1022.8
20210518180116 69 165 0.9 2.6 0.00 0.00 0.00 89 1022.9
20210518175615 69 268 1.7 6.1 0.00 0.00 0.00 86 1022.9
20210518175115 69 104 2.6 6.1 0.00 0.00 0.00 84 1022.7
20210518174616 69 37 0.9 1.7 0.00 0.00 0.00 85 1023.1
20210518174115 69 82 0.0 5.2 0.00 0.00 0.00 87 1023.2
20210518173615 69 218 1.7 4.3 0.00 0.00 0.00 85 1023.0
20210518173116 70 118 1.7 2.6 0.00 0.00 0.00 86 1023.1
20210518172616 70 152 0.9 7.0 0.00 0.00 0.00 85 1022.8
20210518172115 69 133 1.7 7.0 0.00 0.00 0.00 89 1023.0
20210518171615 69 181 1.7 5.2 0.00 0.00 0.00 87 1023.2
20210518171115 69 129 1.7 4.3 0.00 0.00 0.00 91 1023.0
20210518170615 68 55 1.7 2.6 0.00 0.00 0.00 90 1023.0
20210518170115 68 41 1.7 4.3 0.00 0.00 0.00 91 1023.2
20210518165616 68 106 1.7 4.3 0.00 0.00 0.00 90 1023.2
20210518165116 68 152 1.7 6.1 0.00 0.00 0.00 90 1023.1
20210518164615 68 141 0.9 7.0 0.00 0.00 0.00 90 1023.3
20210518164116 68 31 1.7 7.0 0.00 0.00 0.00 89 1023.2
20210518163615 68 108 3.5 6.1 0.00 0.00 0.00 91 1023.1
20210518163115 68 157 2.6 7.0 0.00 0.00 0.00 90 1023.2
20210518162615 67 87 1.7 5.2 0.00 0.00 0.00 91 1023.3
20210518162115 68 150 2.6 6.1 0.00 0.00 0.00 93 1023.3
20210518161615 67 134 0.0 0.9 0.00 0.00 0.00 94 1023.1
20210518161116 66 341 0.9 2.6 0.00 0.00 0.00 95 1023.2
20210518160616 66 183 1.7 5.2 0.00 0.00 0.00 96 1023.3
20210518160115 66 107 0.9 5.2 0.00 0.00 0.00 97 1023.4
20210518155616 66 252 1.7 5.2 0.00 0.00 0.00 96 1023.5
20210518155115 67 110 0.9 5.2 0.00 0.00 0.00 97 1023.5
20210518154615 66 83 1.7 5.2 0.00 0.00 0.00 97 1023.6
20210518154115 65 66 0.9 5.2 0.00 0.00 0.00 97 1023.5
20210518153616 65 95 1.7 4.3 0.00 0.00 0.00 97 1023.6
20210518153115 66 24 0.9 2.6 0.00 0.00 0.00 96 1023.4
20210518152616 65 57 0.9 1.7 0.00 0.00 0.00 98 1023.5
20210518152115 65 326 2.6 4.3 0.00 0.00 0.00 98 1023.5
20210518151615 65 160 1.7 2.6 0.00 0.00 0.00 98 1023.3
20210518151115 65 130 0.9 2.6 0.00 0.00 0.00 97 1023.4
20210518150616 65 167 0.9 2.6 0.00 0.00 0.00 97 1023.4
20210518150115 65 122 1.7 4.3 0.00 0.00 0.00 98 1023.4
20210518145615 65 80 0.9 4.3 0.00 0.00 0.00 98 1023.3
20210518145116 64 87 1.7 7.0 0.00 0.00 0.00 98 1023.2
20210518144615 65 117 2.6 5.2 0.00 0.00 0.00 97 1023.1
20210518144115 64 72 1.7 6.1 0.00 0.00 0.00 97 1023.2
20210518143615 64 95 0.0 6.1 0.00 0.00 0.00 99 1023.4
20210518143116 64 109 0.9 6.1 0.00 0.00 0.00 97 1023.2
20210518142615 64 87 0.0 2.6 0.00 0.00 0.00 98 1023.1
20210518142115 64 205 1.7 5.2 0.00 0.00 0.00 98 1023.3
20210518141615 64 114 0.0 5.2 0.00 0.00 0.00 98 1023.4
20210518141115 64 128 1.7 5.2 0.00 0.00 0.00 98 1023.4
20210518140615 63 170 0.9 5.2 0.00 0.00 0.00 98 1023.4
20210518140115 63 107 1.7 4.3 0.00 0.00 0.00 98 1023.4
20210518135615 63 82 0.9 5.2 0.00 0.00 0.00 99 1023.1
20210518135116 63 105 0.9 1.7 0.00 0.00 0.00 98 1023.2
20210518134615 63 112 0.9 2.6 0.00 0.00 0.00 98 1023.2
20210518134115 63 113 1.7 4.3 0.00 0.00 0.00 97 1023.1
20210518133615 63 114 1.7 4.3 0.00 0.00 0.00 97 1023.0
20210518133115 63 37 0.9 4.3 0.00 0.00 0.00 97 1023.2
20210518132615 64 161 1.7 4.3 0.00 0.00 0.00 97 1023.3
20210518132115 63 142 0.9 1.7 0.00 0.00 0.00 97 1023.0
20210518131615 63 59 0.9 1.7 0.00 0.00 0.00 97 1023.0
20210518131115 63 149 1.7 1.7 0.00 0.00 0.00 97 1022.9
20210518130615 63 73 0.9 5.2 0.00 0.00 0.00 98 1023.1
20210518130115 63 324 0.9 2.6 0.00 0.00 0.00 97 1022.9
20210518125615 62 92 0.9 1.7 0.00 0.00 0.00 98 1022.9
20210518125115 62 103 0.9 1.7 0.00 0.00 0.00 99 1022.9
20210518124615 62 326 0.9 0.9 0.00 0.00 0.00 99 1022.8
20210518124115 62 125 1.7 6.1 0.00 0.00 0.00 98 1022.9
20210518123615 62 98 0.0 0.9 0.00 0.00 0.00 99 1023.0
20210518123115 62 86 0.0 0.9 0.00 0.00 0.00 99 1022.7
20210518122615 62 108 0.9 2.6 0.00 0.00 0.00 99 1022.8
20210518122115 62 49 0.9 2.6 0.00 0.00 0.00 98 1022.7
20210518121615 62 98 0.9 2.6 0.00 0.00 0.00 98 1022.8
20210518121115 61 112 0.9 6.1 0.00 0.00 0.00 98 1022.6
20210518120615 61 222 0.0 4.3 0.00 0.00 0.00 98 1022.5
20210518120115 61 119 1.7 4.3 0.00 0.00 0.00 97 1022.6
20210518115615 61 128 0.0 1.7 0.00 0.00 0.00 98 1022.4
20210518115115 61 191 1.7 5.2 0.00 0.00 0.00 97 1022.5
20210518114615 61 100 0.9 1.7 0.00 0.00 0.00 97 1022.5
20210518114115 61 102 0.9 5.2 0.00 0.00 0.00 96 1022.5
20210518113615 61 151 0.9 2.6 0.00 0.00 0.00 96 1022.5
20210518113115 61 144 1.7 2.6 0.00 0.00 0.00 95 1022.3
20210518112614 61 121 1.7 4.3 0.00 0.00 0.00 95 1022.3
20210518112115 61 134 0.9 1.7 0.00 0.00 0.00 95 1022.2
20210518111615 61 33 0.9 2.6 0.00 0.00 0.00 94 1022.1
20210518111115 61 108 1.7 2.6 0.00 0.00 0.00 94 1022.0
20210518110615 62 181 0.9 2.6 0.00 0.00 0.00 94 1021.8
20210518110115 62 127 1.7 6.1 0.00 0.00 0.00 93 1022.0
20210518105614 62 93 1.7 4.3 0.00 0.00 0.00 93 1021.8
20210518105115 62 111 1.7 4.3 0.00 0.00 0.00 93 1022.0
20210518104614 62 124 1.7 5.2 0.00 0.00 0.00 93 1021.8
20210518104115 62 116 2.6 6.1 0.00 0.00 0.00 92 1021.7
20210518103615 62 148 1.7 2.6 0.00 0.00 0.00 92 1021.6
20210518103115 62 125 1.7 2.6 0.00 0.00 0.00 92 1021.4
20210518102615 62 137 0.9 2.6 0.00 0.00 0.00 92 1021.4
20210518102115 62 126 1.7 1.7 0.00 0.00 0.00 92 1021.4
20210518101615 62 104 0.9 1.7 0.00 0.00 0.00 91 1021.4
20210518101115 62 112 0.9 4.3 0.00 0.00 0.00 91 1021.3
20210518100615 62 115 1.7 2.6 0.00 0.00 0.00 90 1021.2
20210518100114 62 131 0.9 2.6 0.00 0.00 0.00 90 1021.1
20210518095615 62 227 1.7 2.6 0.00 0.00 0.00 90 1021.1
20210518095116 62 126 1.7 5.2 0.00 0.00 0.00 90 1020.9
20210518094615 62 136 2.6 4.3 0.00 0.00 0.00 90 1020.8
20210518094115 62 133 1.7 4.3 0.00 0.00 0.00 89 1020.8
20210518093615 63 90 0.0 2.6 0.00 0.00 0.00 89 1020.7
20210518093115 63 138 1.7 4.3 0.00 0.00 0.00 89 1021.0
20210518092615 62 138 1.7 1.7 0.00 0.00 0.00 90 1020.7
20210518092115 62 113 0.0 1.7 0.00 0.00 0.00 92 1020.8
20210518091615 63 98 0.9 2.6 0.00 0.00 0.00 90 1021.0
20210518091115 63 131 0.9 1.7 0.00 0.00 0.00 90 1020.9
20210518090615 63 113 0.0 2.6 0.00 0.00 0.00 90 1020.7
20210518090115 63 118 0.0 4.3 0.00 0.00 0.00 89 1020.6
20210518085614 63 95 0.9 2.6 0.00 0.00 0.00 89 1020.7
20210518085116 63 110 0.0 0.9 0.00 0.00 0.00 90 1020.5
20210518084615 63 110 0.0 0.9 0.00 0.00 0.00 91 1020.3
20210518084114 63 110 0.0 0.9 0.00 0.00 0.00 90 1020.3
20210518083615 63 114 0.0 0.9 0.00 0.00 0.00 90 1020.3
20210518083114 63 114 0.9 2.6 0.00 0.00 0.00 90 1020.2
20210518082615 63 201 0.0 0.9 0.00 0.00 0.00 89 1020.3
20210518082114 64 201 0.0 1.7 0.00 0.00 0.00 88 1020.3
20210518081615 64 100 0.9 2.6 0.00 0.00 0.00 88 1020.0
20210518081115 64 121 0.9 4.3 0.00 0.00 0.00 88 1019.9
20210518080615 63 111 0.9 4.3 0.00 0.00 0.00 88 1020.0
20210518080115 64 109 0.0 1.7 0.00 0.00 0.00 88 1019.7
20210518075615 64 186 0.9 2.6 0.00 0.00 0.00 87 1019.9
20210518075115 64 127 1.7 4.3 0.00 0.00 0.00 88 1019.7
20210518074614 64 103 0.9 4.3 0.00 0.00 0.00 87 1020.0
20210518074115 64 331 1.7 4.3 0.00 0.00 0.00 86 1019.9
20210518073615 64 118 0.9 1.7 0.00 0.00 0.00 86 1019.9
20210518073115 64 129 0.9 2.6 0.00 0.00 0.00 86 1020.0
20210518072615 64 108 0.9 2.6 0.00 0.00 0.00 85 1019.9
20210518072115 64 78 0.9 2.6 0.00 0.00 0.00 85 1020.1
20210518071615 64 98 0.9 2.6 0.00 0.00 0.00 85 1019.9
20210518071114 64 109 1.7 2.6 0.00 0.00 0.00 85 1020.2
20210518070615 64 93 0.0 1.7 0.00 0.00 0.00 85 1020.2
20210518070115 64 101 0.9 1.7 0.00 0.00 0.00 85 1019.9
20210518065615 65 165 0.9 2.6 0.00 0.00 0.00 84 1019.8
20210518065115 65 58 0.0 2.6 0.00 0.00 0.00 83 1019.9
20210518064615 65 158 0.0 2.6 0.00 0.00 0.00 84 1019.8
20210518064115 65 109 0.9 2.6 0.00 0.00 0.00 83 1019.6
20210518063614 65 333 0.9 2.6 0.00 0.00 0.00 83 1019.7
20210518063115 64 94 0.9 1.7 0.00 0.00 0.00 83 1019.9
20210518062615 64 96 0.0 0.9 0.00 0.00 0.00 84 1019.8
20210518062115 64 186 0.9 7.0 0.00 0.00 0.00 84 1019.9
20210518061614 64 133 0.0 0.9 0.00 0.00 0.00 84 1019.9
20210518061115 64 130 0.9 4.3 0.00 0.00 0.00 84 1019.8
20210518060615 64 78 0.0 2.6 0.00 0.00 0.00 85 1020.1
20210518060115 64 114 0.9 4.3 0.00 0.00 0.00 84 1020.0
20210518055615 64 94 0.9 1.7 0.00 0.00 0.00 85 1020.1
20210518055114 65 83 0.9 5.2 0.00 0.00 0.00 84 1020.0
20210518054615 64 12 0.9 2.6 0.00 0.00 0.00 86 1020.1
20210518054115 64 133 0.9 2.6 0.00 0.00 0.00 86 1019.8
20210518053615 64 74 0.0 2.6 0.00 0.00 0.00 85 1019.9
20210518053115 64 127 0.9 2.6 0.00 0.00 0.00 85 1020.1
20210518052615 65 119 0.9 1.7 0.00 0.00 0.00 85 1020.3
20210518052115 65 78 0.0 1.7 0.00 0.00 0.00 85 1020.3
20210518051615 65 72 0.0 2.6 0.00 0.00 0.00 85 1020.3
20210518051114 65 82 0.0 1.7 0.00 0.00 0.00 85 1020.2
20210518050614 64 137 0.0 1.7 0.00 0.00 0.00 86 1020.5
20210518050115 64 142 0.9 0.9 0.00 0.00 0.00 86 1020.6
20210518045615 64 58 0.0 2.6 0.00 0.00 0.00 86 1020.5
20210518045114 64 89 0.9 2.6 0.00 0.00 0.00 86 1020.4
20210518044615 64 77 0.0 0.9 0.00 0.00 0.00 89 1020.6
20210518044114 64 77 0.0 0.0 0.00 0.00 0.00 88 1020.6
20210518043614 65 77 0.0 0.0 0.00 0.00 0.00 87 1020.8
20210518043115 65 126 0.9 1.7 0.00 0.00 0.00 85 1020.6
20210518042614 65 117 0.0 0.9 0.00 0.00 0.00 88 1020.8
20210518042114 65 120 0.0 2.6 0.00 0.00 0.00 85 1020.7
20210518041615 65 78 0.0 0.9 0.00 0.00 0.00 87 1020.7
20210518041115 64 355 0.0 1.7 0.00 0.00 0.00 87 1020.6
20210518040615 64 328 0.0 2.6 0.00 0.00 0.00 86 1020.7
20210518040114 64 101 0.0 0.9 0.00 0.00 0.00 87 1020.8
20210518035614 64 116 0.0 0.0 0.00 0.00 0.00 87 1020.7
20210518035115 64 87 0.0 0.0 0.00 0.00 0.00 87 1020.8
20210518034615 65 87 0.0 0.0 0.00 0.00 0.00 86 1021.0
20210518034115 65 87 0.9 1.7 0.00 0.00 0.00 85 1020.8
20210518033615 65 142 0.0 0.0 0.00 0.00 0.00 86 1020.7
20210518033115 65 122 0.0 0.9 0.00 0.00 0.00 85 1020.7
20210518032615 65 188 0.0 0.9 0.00 0.00 0.00 84 1020.6
20210518032114 65 187 0.0 1.7 0.00 0.00 0.00 87 1020.6
20210518031615 65 149 0.0 1.7 0.00 0.00 0.00 85 1020.5
20210518031114 65 152 0.0 0.9 0.00 0.00 0.00 87 1020.6
20210518030614 64 87 0.0 1.7 0.00 0.00 0.00 88 1020.6
20210518030115 64 135 0.0 1.7 0.00 0.00 0.00 87 1020.7
20210518025614 64 87 0.0 1.7 0.00 0.00 0.00 89 1020.4
20210518025114 64 91 0.0 0.0 0.00 0.00 0.00 90 1020.5
20210518024615 64 91 0.0 0.0 0.00 0.00 0.00 90 1020.6
20210518024114 64 110 0.0 0.9 0.00 0.00 0.00 87 1020.5
20210518023615 64 126 0.0 0.0 0.00 0.00 0.00 89 1020.2
20210518023114 65 126 0.0 0.0 0.00 0.00 0.00 90 1020.1
20210518022615 65 126 0.0 0.0 0.00 0.00 0.00 88 1020.3
20210518022114 65 126 0.0 1.7 0.00 0.00 0.00 88 1020.3
20210518021615 65 72 0.0 0.9 0.00 0.00 0.00 85 1020.5
20210518021115 65 96 0.0 0.9 0.00 0.00 0.00 84 1020.2
20210518020615 65 86 0.0 0.9 0.00 0.00 0.00 84 1020.4
20210518020114 66 38 0.0 0.9 0.00 0.00 0.00 83 1020.1
20210518015615 66 39 0.0 0.9 0.00 0.00 0.00 83 1020.2
20210518015115 66 103 0.0 0.9 0.00 0.00 0.00 83 1019.9
20210518014615 66 93 0.0 0.9 0.00 0.00 0.00 82 1020.1
20210518014114 66 155 0.0 0.9 0.00 0.00 0.00 84 1019.7
20210518013614 65 138 0.9 1.7 0.00 0.00 0.00 84 1019.8
20210518013115 65 127 0.0 1.7 0.00 0.00 0.00 86 1019.7
20210518012614 65 130 0.0 0.0 0.00 0.00 0.00 85 1019.9
20210518012115 65 153 0.0 0.0 0.00 0.00 0.00 89 1020.0
20210518011615 65 152 0.0 0.0 0.00 0.00 0.00 89 1020.1
20210518011115 65 152 0.0 0.9 0.00 0.00 0.00 88 1020.0
20210518010615 65 153 0.0 2.6 0.00 0.00 0.00 88 1019.9
20210518010115 65 35 0.0 0.0 0.00 0.00 0.00 88 1019.8
20210518005615 65 36 0.0 0.0 0.00 0.00 0.00 88 1019.9
20210518005114 65 36 0.0 0.0 0.00 0.00 0.00 89 1020.0
20210518004615 66 35 0.0 0.9 0.00 0.00 0.00 87 1020.0
20210518004114 66 35 0.0 0.0 0.00 0.00 0.00 85 1020.0
20210518003615 66 35 0.0 0.0 0.00 0.00 0.00 85 1020.0
20210518003114 66 35 0.0 0.9 0.00 0.00 0.00 84 1019.9
20210518002615 67 43 0.0 0.9 0.00 0.00 0.00 85 1019.9
20210518002114 67 72 0.0 0.9 0.00 0.00 0.00 84 1019.9
20210518001614 67 137 0.0 0.9 0.00 0.00 0.00 83 1019.9
20210518001114 67 106 0.9 0.9 0.00 0.00 0.00 84 1019.9
20210518000614 67 106 0.0 0.0 0.00 0.00 0.00 84 1020.0
20210518000115 67 106 0.0 0.0 0.00 0.00 0.00 84 1020.2
20210517235614 67 182 0.0 0.0 0.00 0.00 0.00 83 1020.2
20210517235115 67 104 0.0 0.0 0.00 0.00 0.00 83 1019.6
20210517234614 67 104 0.0 0.9 0.00 0.00 0.00 82 1019.8
20210517234115 68 104 0.0 0.9 0.00 0.00 0.00 82 1019.7
20210517233615 68 107 0.0 0.9 0.00 0.00 0.00 81 1019.9
20210517233114 68 107 0.0 0.9 0.00 0.00 0.00 84 1019.6
20210517232615 68 107 0.0 0.9 0.00 0.00 0.00 81 1019.7
20210517232115 68 107 0.0 1.7 0.00 0.00 0.00 85 1019.8
20210517231614 68 60 0.0 0.0 0.00 0.00 0.00 86 1019.6
20210517231115 68 60 0.0 0.0 0.00 0.00 0.00 85 1019.8
20210517230615 68 60 0.0 0.0 0.00 0.00 0.00 81 1020.0
20210517230114 68 115 0.0 0.0 0.00 0.00 0.00 82 1020.0
20210517225615 68 115 0.0 0.0 0.00 0.00 0.00 84 1020.1
20210517225114 68 78 0.0 0.0 0.00 0.00 0.00 82 1019.8
20210517224615 68 77 0.0 0.0 0.00 0.00 0.00 80 1019.9
20210517224114 68 67 0.0 0.0 0.00 0.00 0.00 86 1019.7
20210517223614 69 66 0.0 0.9 0.00 0.00 0.00 79 1019.9
20210517223114 69 92 0.0 0.0 0.00 0.00 0.00 82 1019.9
20210517222614 69 145 0.9 0.9 0.00 0.00 0.00 80 1020.0
20210517222114 69 78 0.0 0.9 0.00 0.00 0.00 80 1020.2
20210517221615 69 78 0.0 0.9 0.00 0.00 0.00 75 1020.2
20210517221115 69 77 0.0 0.0 0.00 0.00 0.00 80 1019.9
20210517220615 69 77 0.0 0.9 0.00 0.00 0.00 80 1019.8
20210517220114 69 77 0.0 0.9 0.00 0.00 0.00 78 1019.8
20210517215614 69 76 0.0 0.0 0.00 0.00 0.00 82 1020.0
20210517215114 69 76 0.0 0.0 0.00 0.00 0.00 76 1019.9
20210517214614 69 84 0.0 0.0 0.00 0.00 0.00 77 1019.9
20210517214114 70 85 0.0 0.0 0.00 0.00 0.00 78 1019.8
20210517213615 70 85 0.0 0.0 0.00 0.00 0.00 75 1020.0
20210517213114 70 84 0.9 0.9 0.00 0.00 0.00 74 1020.1
20210517212614 70 85 0.0 0.9 0.00 0.00 0.00 75 1020.0
20210517212114 70 92 0.0 0.0 0.00 0.00 0.00 76 1020.0
20210517211614 70 92 0.0 0.9 0.00 0.00 0.00 76 1019.9
20210517211115 70 92 0.0 0.9 0.00 0.00 0.00 76 1019.8
20210517210614 70 86 0.9 1.7 0.00 0.00 0.00 72 1020.0
20210517210114 70 63 0.0 0.9 0.00 0.00 0.00 75 1019.9
20210517205614 70 86 0.0 2.6 0.00 0.00 0.00 72 1019.6
20210517205114 70 99 0.9 1.7 0.00 0.00 0.00 69 1019.9
20210517204615 71 103 0.0 0.9 0.00 0.00 0.00 71 1019.8
20210517204114 71 103 0.9 0.9 0.00 0.00 0.00 68 1020.0
20210517203615 71 54 0.0 0.9 0.00 0.00 0.00 69 1020.1
20210517203115 72 136 0.9 2.6 0.00 0.00 0.00 68 1020.2